Portada
METAR-TAF:

METAR-TAF

Aeropuertos :

Chichén Itzá, México

Aeropuerto Internacional de Kaua

latitud: 20-38-30N, longitud: 088-26-58W, altitud: 31 m

Observación

El informe se hizo hace 4 horas y 31 minutos, a las 19:56 UTC
Viento 16 kt del sur-sureste con ráfagas de 26 kt
Temperatura 36°C
Humedad 45%
Presión 1009 hPa
Visibilidad: 12.9 km
Nubes dispersas a una altura de 2500 ft

METAR: MMCT 301956Z 15016G26KT 8SM SCT025 36/22 A2979 RMK 8/100 MSGTX MMMD

Hora: 19:27 (00:27 UTC)


TAF: falta

Observaciones y pronósticos meteorológicos de más de 4000 aeropuertos (mensajes METAR y TAF).

Los puntos amarillos y rojos representan las estaciones disponibles.

Ponga el ratón en el punto deseado para ver el nombre de la estación.

Haga clic para ver las observaciones y los pronósticos meteorológicos.

Para cambiar el mapa : haga clic en los botones verdes con una cruz de color negro para hacer un zoom, en el botón verde con un guión para alejar o en las flechas verdes para mapas adyacentes.


METAR-TAF: